Flag for United Kingdom Weather past 2 weeks in Walsall, England, United Kingdom

Now
55 °F

Passing clouds.


Feels Like: 53 °F
Forecast: 46 / 62 °F
Wind: 9 mph from Northwest

Location: Birmingham / Airport

Current Time: Sep 5, 2015 at 3:14:23 AM

Latest Report: Sep 5, 2015 at 2:50 AM


Visibility: N/A

Pressure: 30.07 "Hg

Humidity: 94%

Dew point: 54 °F

Location of WalsallLocation

Historic Weather in Walsall — Graph

°F

Walsall temperature yesterday

Maximum temperature yesterday: 61 °F (at 1:50 PM)
Minimum temperature yesterday: 52 °F (at 3:20 AM)
Average temperature yesterday: 56 °F

Past Weeks' High & Low Weather Summary

 TemperatureHumidityPressure
High82 °F (Aug 22, 3:50 PM)100% (Aug 22, 1:50 AM)30.09 "Hg (Aug 22, 1:50 AM)
Low48 °F (Aug 28, 1:50 AM)43% (Aug 29, 3:20 PM)29.50 "Hg (Aug 23, 11:50 AM)
Average59 °F81%29.88 "Hg
* Reported Aug 21 1:20 AM — Sep 5 1:50 AM, Walsall, Weather by CustomWeather, © 2015

Note: Actual official high and low records may vary slightly from our data, if they occured in-between our weather recording intervals... More about our weather records

Advertising

Walsall weather history for previous 24 hours

 ConditionsComfort  
Time TempWeatherWind HumidityBarometerVisibility
1:50 AM
Sat, Sep 5
55 °FPassing clouds.8 mph94%30.07 "HgN/A
1:20 AM55 °FPartly cloudy.8 mph94%30.07 "HgN/A
12:50 AM54 °FRain. Passing clouds.5 mph100%30.07 "Hg3 mi
12:20 AM55 °FPassing clouds.7 mph82%30.07 "HgN/A
11:50 PM
Fri, Sep 4
55 °FPassing clouds.7 mph82%30.07 "HgN/A
11:20 PM55 °FMostly cloudy.6 mph77%30.09 "HgN/A
10:20 PM54 °FPassing clouds.6 mph82%30.09 "HgN/A
9:50 PM54 °FPassing clouds.6 mph77%30.09 "HgN/A
9:20 PM55 °FPassing clouds.6 mph72%30.09 "HgN/A
8:50 PM55 °FClear.7 mph72%30.09 "Hg10 mi
8:20 PM55 °FSunny.13 mph67%30.07 "Hg10 mi
7:50 PM57 °FSunny.13 mph67%30.07 "Hg10 mi
7:20 PM59 °FScattered clouds.12 mph63%30.07 "HgN/A
6:50 PM59 °FScattered clouds.15 mph63%30.07 "HgN/A
6:20 PM59 °FPartly sunny.13 mph63%30.07 "HgN/A
5:50 PM59 °FPartly sunny.13 mph59%30.07 "HgN/A
5:20 PM59 °FScattered clouds.10 mph59%30.07 "HgN/A
4:50 PM61 °FPartly sunny.12 mph52%30.07 "HgN/A
4:20 PM61 °FPartly sunny.14 mph52%30.07 "HgN/A
3:50 PM59 °FPartly sunny.12 mph59%30.07 "HgN/A
3:20 PM61 °FPartly sunny.14 mph52%30.07 "HgN/A
2:50 PM61 °FBroken clouds.14 mph52%30.07 "HgN/A
2:20 PM59 °FScattered clouds.13 mph55%30.07 "HgN/A
1:50 PM61 °FPartly sunny.15 mph55%30.07 "HgN/A
1:20 PM59 °FPartly sunny.15 mph55%30.07 "HgN/A
12:50 PM59 °FPartly sunny.16 mph59%30.07 "HgN/A
12:20 PM59 °FScattered clouds.17 mph59%30.07 "HgN/A
11:50 AM59 °FScattered clouds.16 mph63%30.07 "HgN/A
11:20 AM59 °FScattered clouds.13 mph68%30.07 "HgN/A
10:50 AM57 °FScattered clouds.12 mph72%30.07 "HgN/A
10:20 AM57 °FScattered clouds.9 mph77%30.07 "HgN/A
9:50 AM55 °FScattered clouds.10 mph82%30.07 "HgN/A
9:20 AM55 °FScattered clouds.10 mph88%30.07 "HgN/A
8:50 AM54 °FScattered clouds.9 mph94%30.07 "HgN/A
8:20 AM54 °FBroken clouds.8 mph94%30.04 "HgN/A
7:50 AM52 °FScattered clouds.8 mph94%30.04 "HgN/A
7:20 AM52 °FPassing clouds.6 mph94%30.04 "HgN/A
6:50 AM52 °FPassing clouds.3 mph94%30.04 "HgN/A
6:20 AM52 °FPassing clouds.3 mph94%30.01 "HgN/A
5:50 AM52 °FPassing clouds.3 mph94%30.04 "HgN/A
5:20 AM52 °FOvercast.6 mph94%30.04 "HgN/A
4:50 AM52 °FMostly cloudy.6 mph94%30.04 "HgN/A
4:20 AM52 °FPartly cloudy.7 mph94%30.04 "HgN/A
3:50 AM52 °FPassing clouds.5 mph94%30.04 "Hg4 mi
3:20 AM52 °FLight rain. Partly cloudy.7 mph94%30.04 "Hg5 mi
Weather by CustomWeather, © 2015

See weather overviewHow to use our weather pages